Language: 


Des rapports , des résumés tant et plus, au choix de chacun....


Données statistiques de la station
Quotidien Rapport Février 13, 2017 Unités:  Métrique    Anglais   les deux
« Précédent Jour
Suivant Jour »
Quotidien Hebdomadaire Mensuel Annuel Actuel
  Haut: Bas: Moyen:
Température: 10.7 °C 1.6 °C 5.1 °C
Pt de rosée: 3.6 °C -0.5 °C 1.7 °C
Humidité: 96 % 55 % 80 %
Vitesse du vent: 23.8 km/h 1.4 km/h 11.2 km/h
Rafales: 28.0 km/h - -
Vent:- - East
Pression: 1023.9 hPa 1019.9 hPa -
Précipitation: 0.0 mm    
Historical Graphs
 
 
Données statistiques pour Février 13, 2017
Heure Température Point de rosée Pression Vent Vitesse du vent Refales Humidité Pluie (taux horaire)
00:00 4.1 °C 3.6 °C 1021.9 hPa ENE 9.0 km/h 14.0 km/h 96 % 0.0 mm
00:05 4.0 °C 3.4 °C 1021.9 hPa ENE 9.3 km/h 14.0 km/h 96 % 0.0 mm
00:10 4.0 °C 3.4 °C 1022.9 hPa East 12.6 km/h 13.0 km/h 96 % 0.0 mm
00:15 4.0 °C 3.4 °C 1022.9 hPa NE 9.0 km/h 13.0 km/h 96 % 0.0 mm
00:20 4.0 °C 3.4 °C 1022.9 hPa ENE 10.5 km/h 12.6 km/h 96 % 0.0 mm
00:25 3.9 °C 3.3 °C 1022.9 hPa ENE 9.3 km/h 12.2 km/h 96 % 0.0 mm
00:30 3.9 °C 3.2 °C 1022.9 hPa NE 8.7 km/h 14.0 km/h 95 % 0.0 mm
00:35 3.9 °C 3.2 °C 1022.9 hPa ENE 9.0 km/h 14.0 km/h 95 % 0.0 mm
00:40 3.8 °C 3.2 °C 1022.9 hPa ENE 9.0 km/h 11.9 km/h 96 % 0.0 mm
00:45 3.7 °C 3.2 °C 1022.9 hPa ENE 9.3 km/h 11.9 km/h 96 % 0.0 mm
00:50 3.7 °C 3.2 °C 1022.9 hPa East 9.3 km/h 11.6 km/h 96 % 0.0 mm
00:55 3.6 °C 3.1 °C 1022.9 hPa ENE 7.6 km/h 13.0 km/h 96 % 0.0 mm
01:00 3.6 °C 3.1 °C 1022.9 hPa NE 9.0 km/h 13.0 km/h 96 % 0.0 mm
01:05 3.6 °C 2.9 °C 1022.9 hPa ENE 6.1 km/h 12.2 km/h 95 % 0.0 mm
01:10 3.6 °C 2.8 °C 1022.9 hPa ENE 5.8 km/h 10.8 km/h 95 % 0.0 mm
01:15 3.6 °C 2.8 °C 1022.9 hPa ENE 6.9 km/h 10.8 km/h 95 % 0.0 mm
01:20 3.4 °C 2.7 °C 1022.9 hPa ENE 7.9 km/h 10.1 km/h 95 % 0.0 mm
01:25 3.3 °C 2.6 °C 1022.9 hPa ENE 7.2 km/h 10.5 km/h 95 % 0.0 mm
01:31 3.3 °C 2.6 °C 1022.9 hPa ENE 8.7 km/h 11.6 km/h 95 % 0.0 mm
01:36 3.3 °C 2.8 °C 1022.9 hPa ENE 9.3 km/h 13.7 km/h 96 % 0.0 mm
01:41 3.3 °C 2.8 °C 1022.9 hPa ENE 8.7 km/h 13.7 km/h 96 % 0.0 mm
01:46 3.3 °C 2.8 °C 1022.9 hPa ENE 10.1 km/h 11.9 km/h 96 % 0.0 mm
01:51 3.2 °C 2.5 °C 1022.9 hPa East 9.0 km/h 11.9 km/h 95 % 0.0 mm
01:56 3.2 °C 2.5 °C 1022.9 hPa ENE 6.4 km/h 10.8 km/h 95 % 0.0 mm
02:02 3.1 °C 2.4 °C 1022.9 hPa ENE 7.9 km/h 10.5 km/h 95 % 0.0 mm
02:07 3.2 °C 2.7 °C 1022.9 hPa ENE 8.7 km/h 10.5 km/h 96 % 0.0 mm
02:12 3.2 °C 2.7 °C 1022.9 hPa NE 9.0 km/h 10.5 km/h 96 % 0.0 mm
02:17 3.1 °C 2.4 °C 1022.9 hPa ENE 9.0 km/h 11.9 km/h 95 % 0.0 mm
02:22 3.1 °C 2.4 °C 1022.9 hPa ENE 6.9 km/h 11.9 km/h 95 % 0.0 mm
02:27 3.1 °C 2.4 °C 1022.9 hPa ENE 13.0 km/h 13.0 km/h 95 % 0.0 mm
02:32 3.1 °C 2.4 °C 1022.9 hPa NNE 9.7 km/h 13.0 km/h 95 % 0.0 mm
02:37 3.1 °C 2.4 °C 1021.9 hPa East 8.7 km/h 13.0 km/h 95 % 0.0 mm
02:42 3.2 °C 2.5 °C 1021.9 hPa East 11.6 km/h 13.7 km/h 95 % 0.0 mm
02:47 3.2 °C 2.5 °C 1021.9 hPa East 7.9 km/h 14.0 km/h 95 % 0.0 mm
02:52 3.2 °C 2.5 °C 1022.9 hPa ENE 6.1 km/h 14.0 km/h 95 % 0.0 mm
02:57 3.2 °C 2.5 °C 1022.9 hPa East 10.5 km/h 16.3 km/h 95 % 0.0 mm
03:02 3.1 °C 2.4 °C 1022.9 hPa East 9.3 km/h 16.3 km/h 95 % 0.0 mm
03:07 3.1 °C 2.4 °C 1022.9 hPa ENE 14.0 km/h 14.0 km/h 95 % 0.0 mm
03:12 3.1 °C 2.2 °C 1022.9 hPa ENE 9.3 km/h 14.0 km/h 94 % 0.0 mm
03:17 3.1 °C 2.2 °C 1022.9 hPa ENE 12.2 km/h 14.0 km/h 94 % 0.0 mm
03:22 3.1 °C 2.2 °C 1021.9 hPa ENE 9.3 km/h 15.4 km/h 94 % 0.0 mm
03:27 3.1 °C 2.2 °C 1021.9 hPa ENE 10.1 km/h 15.4 km/h 94 % 0.0 mm
03:32 2.9 °C 2.1 °C 1021.9 hPa NE 12.2 km/h 17.2 km/h 94 % 0.0 mm
03:37 2.9 °C 2.1 °C 1021.9 hPa ENE 9.3 km/h 17.2 km/h 94 % 0.0 mm
03:42 2.8 °C 1.9 °C 1021.9 hPa ENE 8.7 km/h 14.3 km/h 94 % 0.0 mm
03:47 2.7 °C 1.9 °C 1021.9 hPa NE 8.7 km/h 14.3 km/h 94 % 0.0 mm
03:52 2.7 °C 1.9 °C 1021.9 hPa ENE 10.5 km/h 16.3 km/h 94 % 0.0 mm
03:57 2.7 °C 1.8 °C 1021.9 hPa ENE 9.7 km/h 16.3 km/h 94 % 0.0 mm
04:02 2.7 °C 1.8 °C 1021.9 hPa NE 9.7 km/h 15.4 km/h 94 % 0.0 mm
04:07 2.7 °C 1.8 °C 1021.9 hPa ENE 10.5 km/h 15.4 km/h 94 % 0.0 mm
04:12 2.7 °C 1.8 °C 1021.9 hPa ENE 9.7 km/h 16.3 km/h 94 % 0.0 mm
04:17 2.7 °C 1.8 °C 1021.9 hPa NE 9.7 km/h 16.3 km/h 94 % 0.0 mm
04:22 2.7 °C 1.8 °C 1021.9 hPa East 11.9 km/h 14.0 km/h 94 % 0.0 mm
04:27 2.7 °C 1.8 °C 1021.9 hPa ENE 6.1 km/h 14.0 km/h 94 % 0.0 mm
04:32 2.6 °C 1.7 °C 1021.9 hPa East 11.6 km/h 14.0 km/h 94 % 0.0 mm
04:37 2.6 °C 1.7 °C 1021.9 hPa East 9.0 km/h 14.0 km/h 94 % 0.0 mm
04:42 2.6 °C 1.7 °C 1021.9 hPa East 9.7 km/h 14.0 km/h 94 % 0.0 mm
04:47 2.6 °C 1.7 °C 1021.9 hPa ENE 9.7 km/h 13.0 km/h 94 % 0.0 mm
04:52 2.4 °C 1.6 °C 1021.9 hPa ENE 9.7 km/h 13.7 km/h 94 % 0.0 mm
04:57 2.4 °C 1.6 °C 1021.9 hPa East 12.2 km/h 13.7 km/h 94 % 0.0 mm
05:02 2.4 °C 1.6 °C 1021.9 hPa ENE 10.5 km/h 14.0 km/h 94 % 0.0 mm
05:07 2.4 °C 1.6 °C 1021.9 hPa ENE 11.6 km/h 14.0 km/h 94 % 0.0 mm
05:12 2.3 °C 1.5 °C 1021.9 hPa East 10.1 km/h 14.0 km/h 94 % 0.0 mm
05:17 2.3 °C 1.5 °C 1021.9 hPa ENE 11.1 km/h 14.0 km/h 94 % 0.0 mm
05:23 2.3 °C 1.3 °C 1021.9 hPa East 12.6 km/h 14.0 km/h 93 % 0.0 mm
05:28 2.3 °C 1.2 °C 1021.9 hPa East 9.0 km/h 14.0 km/h 93 % 0.0 mm
05:33 2.3 °C 1.2 °C 1021.9 hPa ENE 12.2 km/h 14.0 km/h 93 % 0.0 mm
05:38 2.3 °C 1.2 °C 1021.9 hPa NE 9.0 km/h 14.0 km/h 93 % 0.0 mm
05:43 2.3 °C 1.2 °C 1021.9 hPa ENE 11.9 km/h 13.7 km/h 93 % 0.0 mm
05:48 2.3 °C 1.2 °C 1021.9 hPa NE 10.1 km/h 13.7 km/h 93 % 0.0 mm
05:53 2.3 °C 1.2 °C 1021.9 hPa East 12.6 km/h 15.8 km/h 93 % 0.0 mm
05:58 2.3 °C 1.2 °C 1021.9 hPa East 9.7 km/h 15.8 km/h 93 % 0.0 mm
06:03 2.2 °C 1.2 °C 1021.9 hPa East 12.2 km/h 15.4 km/h 93 % 0.0 mm
06:08 2.2 °C 1.2 °C 1021.9 hPa ENE 9.7 km/h 14.3 km/h 93 % 0.0 mm
06:13 2.2 °C 1.2 °C 1021.9 hPa NE 12.6 km/h 20.1 km/h 93 % 0.0 mm
06:18 2.1 °C 1.1 °C 1021.9 hPa East 9.3 km/h 20.1 km/h 93 % 0.0 mm
06:23 2.1 °C 1.1 °C 1021.9 hPa NE 12.6 km/h 14.0 km/h 93 % 0.0 mm
06:28 2.1 °C 1.1 °C 1021.9 hPa ENE 9.7 km/h 14.0 km/h 93 % 0.0 mm
06:33 2.1 °C 1.1 °C 1021.9 hPa East 13.0 km/h 14.0 km/h 93 % 0.0 mm
06:38 2.1 °C 1.1 °C 1021.9 hPa East 9.3 km/h 14.0 km/h 93 % 0.0 mm
06:43 2.1 °C 1.1 °C 1021.9 hPa ENE 9.7 km/h 14.8 km/h 93 % 0.0 mm
06:48 1.9 °C 0.9 °C 1021.9 hPa ENE 14.0 km/h 15.8 km/h 93 % 0.0 mm
06:53 1.9 °C 0.9 °C 1021.9 hPa ENE 14.0 km/h 16.6 km/h 93 % 0.0 mm
06:58 1.9 °C 0.9 °C 1021.9 hPa East 13.0 km/h 16.6 km/h 93 % 0.0 mm
07:03 1.9 °C 0.9 °C 1021.9 hPa ENE 7.9 km/h 14.0 km/h 93 % 0.0 mm
07:08 1.9 °C 0.8 °C 1021.9 hPa East 13.7 km/h 15.4 km/h 93 % 0.0 mm
07:13 1.9 °C 0.8 °C 1021.9 hPa ENE 10.5 km/h 15.4 km/h 93 % 0.0 mm
07:18 1.9 °C 0.8 °C 1021.9 hPa ENE 9.7 km/h 16.6 km/h 93 % 0.0 mm
07:23 1.9 °C 0.8 °C 1021.9 hPa NE 10.5 km/h 16.6 km/h 93 % 0.0 mm
07:28 1.9 °C 0.8 °C 1021.9 hPa East 14.0 km/h 17.7 km/h 93 % 0.0 mm
07:33 1.8 °C 0.8 °C 1021.9 hPa ENE 12.2 km/h 17.7 km/h 93 % 0.0 mm
07:38 1.8 °C 0.8 °C 1021.9 hPa ENE 12.6 km/h 16.6 km/h 93 % 0.0 mm
07:43 1.8 °C 0.8 °C 1021.9 hPa NE 13.0 km/h 16.6 km/h 93 % 0.0 mm
07:48 1.7 °C 0.7 °C 1021.9 hPa NE 13.7 km/h 16.6 km/h 93 % 0.0 mm
07:53 1.7 °C 0.7 °C 1021.9 hPa East 8.7 km/h 16.6 km/h 93 % 0.0 mm
07:58 1.7 °C 0.7 °C 1021.9 hPa East 6.9 km/h 13.7 km/h 93 % 0.0 mm
08:03 1.7 °C 0.7 °C 1021.9 hPa East 8.7 km/h 13.7 km/h 93 % 0.0 mm
08:08 1.6 °C 0.6 °C 1022.9 hPa East 8.7 km/h 13.7 km/h 93 % 0.0 mm
08:13 1.6 °C 0.6 °C 1022.9 hPa East 10.5 km/h 13.0 km/h 93 % 0.0 mm
08:18 1.6 °C 0.6 °C 1022.9 hPa East 7.9 km/h 12.6 km/h 93 % 0.0 mm
08:23 1.6 °C 0.6 °C 1022.9 hPa NE 6.9 km/h 11.9 km/h 93 % 0.0 mm
08:28 1.7 °C 0.7 °C 1022.9 hPa East 7.9 km/h 14.0 km/h 93 % 0.0 mm
08:33 1.7 °C 0.7 °C 1022.9 hPa East 11.9 km/h 16.3 km/h 93 % 0.0 mm
08:38 1.7 °C 0.7 °C 1022.9 hPa ENE 9.0 km/h 16.3 km/h 93 % 0.0 mm
08:43 1.8 °C 0.8 °C 1022.9 hPa ENE 9.7 km/h 14.0 km/h 93 % 0.0 mm
08:48 1.9 °C 1.0 °C 1022.9 hPa NE 13.7 km/h 14.3 km/h 94 % 0.0 mm
08:53 1.9 °C 0.8 °C 1022.9 hPa ENE 8.7 km/h 14.3 km/h 93 % 0.0 mm
08:58 1.9 °C 0.9 °C 1022.9 hPa East 10.5 km/h 12.6 km/h 93 % 0.0 mm
09:03 2.1 °C 1.1 °C 1022.9 hPa ENE 11.9 km/h 13.0 km/h 93 % 0.0 mm
09:08 2.2 °C 1.2 °C 1022.9 hPa ENE 11.9 km/h 13.7 km/h 93 % 0.0 mm
09:13 2.3 °C 1.2 °C 1022.9 hPa ENE 6.9 km/h 13.7 km/h 93 % 0.0 mm
09:18 2.4 °C 1.4 °C 1022.9 hPa East 9.0 km/h 13.7 km/h 93 % 0.0 mm
09:23 2.6 °C 1.4 °C 1022.9 hPa ENE 10.1 km/h 13.7 km/h 92 % 0.0 mm
09:28 2.7 °C 1.5 °C 1022.9 hPa East 10.1 km/h 13.7 km/h 92 % 0.0 mm
09:33 2.7 °C 1.4 °C 1022.9 hPa ENE 9.7 km/h 13.7 km/h 91 % 0.0 mm
09:38 2.8 °C 1.4 °C 1022.9 hPa East 9.7 km/h 14.0 km/h 90 % 0.0 mm
09:43 3.1 °C 1.4 °C 1022.9 hPa East 9.7 km/h 14.3 km/h 89 % 0.0 mm
09:48 3.1 °C 1.4 °C 1022.9 hPa East 13.0 km/h 18.0 km/h 89 % 0.0 mm
09:53 3.2 °C 1.6 °C 1022.9 hPa East 9.3 km/h 18.0 km/h 89 % 0.0 mm
09:58 3.3 °C 1.6 °C 1022.9 hPa East 8.7 km/h 16.6 km/h 88 % 0.0 mm
10:03 3.4 °C 1.6 °C 1022.9 hPa ENE 10.5 km/h 16.6 km/h 88 % 0.0 mm
10:08 3.6 °C 1.7 °C 1022.9 hPa East 14.8 km/h 16.3 km/h 88 % 0.0 mm
10:13 3.7 °C 1.8 °C 1022.9 hPa East 9.3 km/h 16.9 km/h 87 % 0.0 mm
10:18 3.9 °C 1.9 °C 1022.9 hPa ENE 6.9 km/h 16.9 km/h 87 % 0.0 mm
10:23 4.1 °C 2.2 °C 1022.9 hPa ENE 10.1 km/h 15.8 km/h 87 % 0.0 mm
10:28 4.1 °C 2.0 °C 1022.9 hPa East 9.0 km/h 15.8 km/h 86 % 0.0 mm
10:33 4.4 °C 2.3 °C 1022.9 hPa East 8.7 km/h 14.8 km/h 86 % 0.0 mm
10:38 4.7 °C 2.6 °C 1022.9 hPa ENE 9.3 km/h 13.7 km/h 86 % 0.0 mm
10:43 4.8 °C 2.5 °C 1022.9 hPa ENE 9.3 km/h 14.0 km/h 85 % 0.0 mm
10:48 5.0 °C 2.7 °C 1022.9 hPa ENE 13.7 km/h 14.0 km/h 85 % 0.0 mm
10:53 5.1 °C 2.6 °C 1022.9 hPa NE 12.2 km/h 13.7 km/h 84 % 0.0 mm
10:58 5.1 °C 2.3 °C 1022.9 hPa East 11.9 km/h 16.9 km/h 82 % 0.0 mm
11:03 5.2 °C 2.2 °C 1022.9 hPa East 11.1 km/h 16.9 km/h 81 % 0.0 mm
11:08 5.4 °C 2.6 °C 1022.9 hPa East 7.9 km/h 16.6 km/h 82 % 0.0 mm
11:13 5.5 °C 2.5 °C 1022.9 hPa NE 9.7 km/h 14.0 km/h 81 % 0.0 mm
11:18 5.7 °C 2.5 °C 1022.9 hPa ESE 13.7 km/h 14.0 km/h 80 % 0.0 mm
11:24 5.8 °C 2.4 °C 1022.9 hPa ESE 12.6 km/h 16.3 km/h 79 % 0.0 mm
11:29 6.0 °C 2.8 °C 1022.9 hPa East 9.7 km/h 16.3 km/h 80 % 0.0 mm
11:34 6.1 °C 2.5 °C 1022.9 hPa East 14.3 km/h 15.4 km/h 78 % 0.0 mm
11:39 6.3 °C 2.7 °C 1021.9 hPa NE 10.1 km/h 16.3 km/h 78 % 0.0 mm
11:44 6.4 °C 2.7 °C 1021.9 hPa ESE 17.7 km/h 17.7 km/h 77 % 0.0 mm
11:49 6.7 °C 2.7 °C 1021.9 hPa East 7.9 km/h 17.7 km/h 76 % 0.0 mm
11:54 6.9 °C 3.0 °C 1023.9 hPa East 8.7 km/h 16.9 km/h 76 % 0.0 mm
11:59 7.3 °C 3.3 °C 1023.9 hPa East 6.1 km/h 13.7 km/h 76 % 0.0 mm
12:04 7.3 °C 3.0 °C 1023.9 hPa East 9.3 km/h 16.3 km/h 74 % 0.0 mm
12:09 7.6 °C 3.0 °C 1022.9 hPa SE 11.9 km/h 17.7 km/h 73 % 0.0 mm
12:14 7.7 °C 2.7 °C 1022.9 hPa East 12.2 km/h 19.5 km/h 71 % 0.0 mm
12:19 7.7 °C 2.8 °C 1022.9 hPa East 15.8 km/h 19.5 km/h 71 % 0.0 mm
12:24 7.7 °C 2.6 °C 1022.9 hPa ESE 16.9 km/h 17.7 km/h 70 % 0.0 mm
12:29 7.9 °C 2.8 °C 1022.9 hPa East 9.3 km/h 17.7 km/h 70 % 0.0 mm
12:34 8.1 °C 3.0 °C 1022.9 hPa East 16.9 km/h 16.9 km/h 70 % 0.0 mm
12:39 8.3 °C 2.9 °C 1021.9 hPa ESE 20.6 km/h 20.6 km/h 69 % 0.0 mm
12:44 8.5 °C 2.7 °C 1021.9 hPa East 9.0 km/h 20.6 km/h 67 % 0.0 mm
12:49 8.4 °C 2.2 °C 1021.9 hPa SSE 16.9 km/h 21.2 km/h 65 % 0.0 mm
12:54 8.6 °C 2.2 °C 1022.9 hPa East 12.6 km/h 21.2 km/h 64 % 0.0 mm
12:59 8.7 °C 2.3 °C 1022.9 hPa ESE 16.9 km/h 21.2 km/h 64 % 0.0 mm
13:04 8.8 °C 2.4 °C 1022.9 hPa ESE 12.2 km/h 21.2 km/h 64 % 0.0 mm
13:09 8.8 °C 1.9 °C 1021.9 hPa East 10.1 km/h 21.2 km/h 62 % 0.0 mm
13:14 9.0 °C 2.6 °C 1021.9 hPa East 9.0 km/h 20.9 km/h 64 % 0.0 mm
13:19 9.1 °C 2.7 °C 1021.9 hPa East 15.4 km/h 17.2 km/h 64 % 0.0 mm
13:24 9.1 °C 2.0 °C 1021.9 hPa East 12.6 km/h 20.6 km/h 61 % 0.0 mm
13:29 9.2 °C 2.3 °C 1021.9 hPa East 16.6 km/h 20.6 km/h 62 % 0.0 mm
13:34 9.3 °C 2.4 °C 1021.9 hPa East 13.0 km/h 21.2 km/h 62 % 0.0 mm
13:39 9.5 °C 2.6 °C 1021.9 hPa East 16.6 km/h 21.2 km/h 62 % 0.0 mm
13:44 9.6 °C 2.4 °C 1021.9 hPa ESE 20.9 km/h 21.2 km/h 61 % 0.0 mm
13:49 9.7 °C 2.6 °C 1021.9 hPa East 16.6 km/h 21.2 km/h 61 % 0.0 mm
13:54 9.7 °C 2.1 °C 1020.9 hPa East 20.6 km/h 21.6 km/h 59 % 0.0 mm
13:59 9.8 °C 2.4 °C 1020.9 hPa East 17.2 km/h 21.6 km/h 60 % 0.0 mm
14:04 9.9 °C 2.0 °C 1020.9 hPa East 17.2 km/h 20.9 km/h 58 % 0.0 mm
14:09 10.0 °C 2.3 °C 1020.9 hPa ESE 13.7 km/h 21.2 km/h 59 % 0.0 mm
14:14 10.1 °C 2.4 °C 1020.9 hPa East 13.0 km/h 21.6 km/h 59 % 0.0 mm
14:19 10.2 °C 2.3 °C 1020.9 hPa ENE 13.7 km/h 23.8 km/h 58 % 0.0 mm
14:24 10.2 °C 2.3 °C 1020.9 hPa East 18.0 km/h 23.8 km/h 58 % 0.0 mm
14:29 10.2 °C 2.3 °C 1020.9 hPa East 16.6 km/h 24.5 km/h 58 % 0.0 mm
14:34 10.4 °C 2.4 °C 1020.9 hPa East 20.1 km/h 24.5 km/h 58 % 0.0 mm
14:39 10.3 °C 1.9 °C 1020.9 hPa East 17.2 km/h 20.9 km/h 56 % 0.0 mm
14:44 10.3 °C 1.9 °C 1020.9 hPa East 17.2 km/h 20.9 km/h 56 % 0.0 mm
14:49 10.3 °C 1.6 °C 1020.9 hPa East 20.1 km/h 20.1 km/h 55 % 0.0 mm
14:55 10.4 °C 2.0 °C 1020.9 hPa East 11.6 km/h 21.9 km/h 56 % 0.0 mm
15:00 10.4 °C 2.0 °C 1020.9 hPa ESE 16.6 km/h 21.9 km/h 56 % 0.0 mm
15:05 10.5 °C 2.1 °C 1020.9 hPa East 16.6 km/h 20.1 km/h 56 % 0.0 mm
15:10 10.5 °C 2.1 °C 1019.9 hPa East 17.7 km/h 21.2 km/h 56 % 0.0 mm
15:15 10.6 °C 2.4 °C 1019.9 hPa NE 8.7 km/h 21.2 km/h 57 % 0.0 mm
15:20 10.7 °C 2.5 °C 1019.9 hPa East 9.7 km/h 20.1 km/h 57 % 0.0 mm
15:25 10.6 °C 2.2 °C 1019.9 hPa ESE 13.7 km/h 20.1 km/h 56 % 0.0 mm
15:30 10.5 °C 1.8 °C 1019.9 hPa East 12.2 km/h 21.9 km/h 55 % 0.0 mm
15:35 10.6 °C 2.2 °C 1019.9 hPa East 12.6 km/h 21.9 km/h 56 % 0.0 mm
15:40 10.6 °C 2.2 °C 1020.9 hPa ENE 16.6 km/h 20.6 km/h 56 % 0.0 mm
15:45 10.6 °C 2.4 °C 1020.9 hPa East 10.5 km/h 20.6 km/h 57 % 0.0 mm
15:50 10.7 °C 2.7 °C 1020.9 hPa ENE 16.3 km/h 17.2 km/h 58 % 0.0 mm
15:55 10.5 °C 2.6 °C 1020.9 hPa ENE 16.3 km/h 20.1 km/h 58 % 0.0 mm
16:00 10.5 °C 2.3 °C 1020.9 hPa East 16.9 km/h 23.8 km/h 57 % 0.0 mm
16:05 10.4 °C 2.2 °C 1020.9 hPa East 12.6 km/h 23.8 km/h 57 % 0.0 mm
16:10 10.3 °C 2.4 °C 1020.9 hPa East 17.2 km/h 19.5 km/h 58 % 0.0 mm
16:15 10.1 °C 2.4 °C 1020.9 hPa ENE 10.5 km/h 20.9 km/h 59 % 0.0 mm
16:20 10.0 °C 2.3 °C 1020.9 hPa East 16.6 km/h 20.9 km/h 59 % 0.0 mm
16:25 9.9 °C 2.5 °C 1020.9 hPa NE 9.3 km/h 19.8 km/h 60 % 0.0 mm
16:30 9.8 °C 2.4 °C 1020.9 hPa NE 12.6 km/h 20.6 km/h 60 % 0.0 mm
16:35 9.6 °C 2.2 °C 1020.9 hPa ENE 13.7 km/h 20.6 km/h 60 % 0.0 mm
16:40 9.5 °C 2.1 °C 1020.9 hPa East 12.2 km/h 16.9 km/h 60 % 0.0 mm
16:45 9.4 °C 2.3 °C 1020.9 hPa NE 14.3 km/h 17.7 km/h 61 % 0.0 mm
16:50 9.3 °C 2.4 °C 1020.9 hPa East 13.7 km/h 17.7 km/h 62 % 0.0 mm
16:55 9.1 °C 2.2 °C 1019.9 hPa East 10.1 km/h 17.2 km/h 62 % 0.0 mm
17:01 9.0 °C 2.3 °C 1019.9 hPa East 16.9 km/h 20.6 km/h 63 % 0.0 mm
17:06 8.9 °C 2.0 °C 1019.9 hPa NE 10.1 km/h 20.6 km/h 62 % 0.0 mm
17:11 8.8 °C 1.9 °C 1020.9 hPa East 17.2 km/h 21.2 km/h 62 % 0.0 mm
17:16 8.6 °C 1.7 °C 1020.9 hPa ESE 17.7 km/h 21.2 km/h 62 % 0.0 mm
17:21 8.5 °C 1.9 °C 1020.9 hPa ESE 17.2 km/h 18.0 km/h 63 % 0.0 mm
17:26 8.4 °C 2.0 °C 1020.9 hPa East 15.8 km/h 20.1 km/h 64 % 0.0 mm
17:31 8.3 °C 2.1 °C 1020.9 hPa East 12.2 km/h 20.1 km/h 65 % 0.0 mm
17:36 8.1 °C 2.2 °C 1020.9 hPa East 7.9 km/h 20.1 km/h 66 % 0.0 mm
17:41 8.1 °C 2.1 °C 1020.9 hPa East 9.3 km/h 20.1 km/h 66 % 0.0 mm
17:46 7.8 °C 1.9 °C 1020.9 hPa East 16.6 km/h 19.5 km/h 66 % 0.0 mm
17:51 7.7 °C 1.9 °C 1020.9 hPa East 16.6 km/h 19.8 km/h 67 % 0.0 mm
17:56 7.6 °C 1.8 °C 1020.9 hPa NE 12.6 km/h 20.6 km/h 67 % 0.0 mm
18:01 7.3 °C 1.8 °C 1020.9 hPa ENE 23.8 km/h 23.8 km/h 68 % 0.0 mm
18:06 7.3 °C 1.7 °C 1020.9 hPa East 11.9 km/h 23.8 km/h 68 % 0.0 mm
18:11 7.1 °C 1.6 °C 1020.9 hPa NE 17.7 km/h 23.8 km/h 68 % 0.0 mm
18:16 6.9 °C 1.4 °C 1020.9 hPa East 16.3 km/h 19.5 km/h 68 % 0.0 mm
18:21 6.8 °C 1.6 °C 1020.9 hPa East 20.1 km/h 20.1 km/h 69 % 0.0 mm
18:26 6.7 °C 1.4 °C 1020.9 hPa NE 12.2 km/h 20.1 km/h 69 % 0.0 mm
18:31 6.6 °C 1.5 °C 1020.9 hPa NE 10.1 km/h 20.1 km/h 70 % 0.0 mm
18:36 6.6 °C 1.5 °C 1020.9 hPa East 14.0 km/h 20.9 km/h 70 % 0.0 mm
18:41 6.4 °C 1.4 °C 1020.9 hPa East 17.7 km/h 28.0 km/h 70 % 0.0 mm
18:46 6.4 °C 1.3 °C 1020.9 hPa East 13.7 km/h 28.0 km/h 70 % 0.0 mm
18:51 6.3 °C 1.2 °C 1020.9 hPa ENE 9.7 km/h 21.6 km/h 70 % 0.0 mm
18:56 6.2 °C 1.3 °C 1020.9 hPa East 9.3 km/h 20.9 km/h 71 % 0.0 mm
19:01 6.1 °C 1.2 °C 1020.9 hPa NE 8.7 km/h 20.6 km/h 71 % 0.0 mm
19:06 6.0 °C 1.1 °C 1020.9 hPa East 11.9 km/h 20.1 km/h 71 % 0.0 mm
19:11 5.9 °C 1.0 °C 1020.9 hPa East 12.2 km/h 20.1 km/h 71 % 0.0 mm
19:16 5.8 °C 1.1 °C 1020.9 hPa East 16.3 km/h 16.9 km/h 72 % 0.0 mm
19:21 5.7 °C 1.0 °C 1020.9 hPa East 10.5 km/h 18.0 km/h 72 % 0.0 mm
19:26 5.7 °C 1.2 °C 1020.9 hPa ENE 8.7 km/h 18.0 km/h 73 % 0.0 mm
19:31 5.6 °C 1.1 °C 1020.9 hPa East 6.9 km/h 16.6 km/h 73 % 0.0 mm
19:36 5.5 °C 1.1 °C 1020.9 hPa East 12.2 km/h 14.0 km/h 73 % 0.0 mm
19:41 5.4 °C 1.1 °C 1020.9 hPa East 8.7 km/h 14.0 km/h 74 % 0.0 mm
19:46 5.4 °C 1.1 °C 1020.9 hPa NNE 9.3 km/h 13.7 km/h 74 % 0.0 mm
19:51 5.3 °C 1.1 °C 1020.9 hPa ENE 9.3 km/h 17.7 km/h 74 % 0.0 mm
19:56 5.4 °C 1.1 °C 1020.9 hPa East 16.3 km/h 17.7 km/h 74 % 0.0 mm
20:01 5.4 °C 1.1 °C 1020.9 hPa ESE 10.5 km/h 16.3 km/h 74 % 0.0 mm
20:06 5.4 °C 1.1 °C 1020.9 hPa ENE 10.1 km/h 16.6 km/h 74 % 0.0 mm
20:11 5.4 °C 1.1 °C 1020.9 hPa East 20.6 km/h 20.6 km/h 74 % 0.0 mm
20:16 5.4 °C 1.1 °C 1020.9 hPa ENE 9.7 km/h 20.6 km/h 74 % 0.0 mm
20:21 5.4 °C 1.1 °C 1020.9 hPa ESE 10.5 km/h 20.6 km/h 74 % 0.0 mm
20:26 5.5 °C 1.2 °C 1020.9 hPa East 13.7 km/h 19.1 km/h 74 % 0.0 mm
20:31 5.5 °C 1.1 °C 1020.9 hPa ENE 13.7 km/h 19.8 km/h 73 % 0.0 mm
20:36 5.4 °C 0.9 °C 1020.9 hPa East 13.7 km/h 19.8 km/h 73 % 0.0 mm
20:41 5.4 °C 0.9 °C 1020.9 hPa East 16.6 km/h 19.8 km/h 73 % 0.0 mm
20:46 5.3 °C 0.8 °C 1020.9 hPa East 8.7 km/h 19.8 km/h 73 % 0.0 mm
20:51 5.2 °C 0.7 °C 1020.9 hPa ESE 10.1 km/h 16.9 km/h 73 % 0.0 mm
20:56 5.2 °C 0.7 °C 1020.9 hPa East 11.9 km/h 16.6 km/h 73 % 0.0 mm
21:02 5.2 °C 0.9 °C 1020.9 hPa ENE 9.7 km/h 16.9 km/h 74 % 0.0 mm
21:07 5.1 °C 0.8 °C 1020.9 hPa East 19.5 km/h 19.5 km/h 74 % 0.0 mm
21:12 5.1 °C 0.8 °C 1020.9 hPa East 10.5 km/h 19.5 km/h 74 % 0.0 mm
21:17 5.0 °C 0.6 °C 1020.9 hPa East 16.6 km/h 16.6 km/h 73 % 0.0 mm
21:22 5.1 °C 0.8 °C 1020.9 hPa ESE 9.7 km/h 17.2 km/h 74 % 0.0 mm
21:27 5.0 °C 0.6 °C 1021.9 hPa SE 6.1 km/h 17.2 km/h 73 % 0.0 mm
21:32 5.0 °C 0.7 °C 1021.9 hPa East 5.8 km/h 15.8 km/h 74 % 0.0 mm
21:37 4.9 °C 0.7 °C 1021.9 hPa East 10.1 km/h 15.8 km/h 74 % 0.0 mm
21:42 4.8 °C 0.6 °C 1021.9 hPa ESE 3.5 km/h 14.0 km/h 74 % 0.0 mm
21:47 4.8 °C 0.6 °C 1021.9 hPa ESE 10.8 km/h 16.3 km/h 74 % 0.0 mm
21:52 4.7 °C 0.4 °C 1021.9 hPa ESE 9.3 km/h 16.3 km/h 74 % 0.0 mm
21:57 4.7 °C 0.7 °C 1021.9 hPa East 13.7 km/h 14.0 km/h 75 % 0.0 mm
22:02 4.6 °C 0.4 °C 1021.9 hPa ENE 9.0 km/h 14.0 km/h 74 % 0.0 mm
22:07 4.6 °C 0.4 °C 1021.9 hPa East 6.9 km/h 13.7 km/h 74 % 0.0 mm
22:12 4.5 °C 0.4 °C 1021.9 hPa ESE 6.9 km/h 12.6 km/h 75 % 0.0 mm
22:17 4.4 °C 0.4 °C 1021.9 hPa ENE 9.0 km/h 12.6 km/h 75 % 0.0 mm
22:22 4.3 °C 0.3 °C 1021.9 hPa ESE 6.4 km/h 11.6 km/h 75 % 0.0 mm
22:27 4.2 °C 0.2 °C 1021.9 hPa East 6.9 km/h 11.6 km/h 75 % 0.0 mm
22:32 4.1 °C 0.1 °C 1021.9 hPa East 4.0 km/h 9.0 km/h 75 % 0.0 mm
22:37 4.0 °C 0.0 °C 1021.9 hPa East 5.8 km/h 10.5 km/h 75 % 0.0 mm
22:42 3.9 °C -0.1 °C 1021.9 hPa NE 6.1 km/h 10.5 km/h 75 % 0.0 mm
22:47 3.7 °C -0.1 °C 1021.9 hPa East 2.6 km/h 9.7 km/h 76 % 0.0 mm
22:52 3.6 °C -0.2 °C 1021.9 hPa ENE 1.4 km/h 9.7 km/h 76 % 0.0 mm
22:57 3.6 °C -0.3 °C 1021.9 hPa East 8.7 km/h 9.3 km/h 76 % 0.0 mm
23:02 3.3 °C -0.5 °C 1021.9 hPa ENE 5.8 km/h 9.3 km/h 76 % 0.0 mm
23:07 3.2 °C -0.4 °C 1021.9 hPa ENE 6.4 km/h 10.1 km/h 77 % 0.0 mm
23:12 3.2 °C -0.4 °C 1021.9 hPa East 7.6 km/h 10.1 km/h 77 % 0.0 mm
23:17 3.2 °C -0.2 °C 1021.9 hPa NE 7.9 km/h 10.1 km/h 78 % 0.0 mm
23:22 3.2 °C -0.2 °C 1020.9 hPa East 7.6 km/h 10.1 km/h 78 % 0.0 mm
23:27 3.2 °C -0.2 °C 1020.9 hPa ESE 7.2 km/h 10.1 km/h 78 % 0.0 mm
23:32 3.2 °C -0.2 °C 1020.9 hPa East 7.9 km/h 10.8 km/h 78 % 0.0 mm
23:37 3.2 °C -0.2 °C 1020.9 hPa East 9.3 km/h 10.8 km/h 78 % 0.0 mm
23:42 3.1 °C -0.3 °C 1020.9 hPa ENE 6.9 km/h 10.1 km/h 78 % 0.0 mm
23:47 3.1 °C -0.2 °C 1020.9 hPa East 6.4 km/h 11.6 km/h 79 % 0.0 mm
23:52 3.1 °C -0.2 °C 1020.9 hPa East 9.3 km/h 14.0 km/h 79 % 0.0 mm
23:57 3.1 °C -0.2 °C 1020.9 hPa East 6.1 km/h 14.0 km/h 79 % 0.0 mm
Le Gheer Warneton
Courtoisie de Weather Underground - 2.25 mb

Mise a jour : 17-12-17 07:17:12
Généré par Cumulus 1.9.4 (1099)